CW3583 Weather Reports


time (UTC)temp
C
wind
direction
speed
KPH
gust
KPH
rain 1hr
cm
rain 24hr
cm
rain mn
cm
humidity
%
barometer
mb
20260507032305 11 160 4.8 8.0 0.00 0.18 0.00 91 1013.3
20260507030307 11 158 3.2 4.8 0.00 0.23 0.00 91 1013.4
20260507024806 11 158 3.2 4.8 0.00 0.38 0.00 91 1013.4
20260507023305 11 164 1.6 4.8 0.00 0.38 0.00 90 1013.5
20260507021806 11 164 3.2 4.8 0.00 0.38 0.00 90 1013.6
20260507020306 12 164 1.6 4.8 0.00 0.38 0.00 90 1013.9
20260507015804 12 161 4.8 4.8 0.00 0.38 0.00 90 1013.9
20260507015306 12 161 3.2 4.8 0.00 0.41 0.00 90 1013.9
20260507014304 12 189 1.6 3.2 0.00 0.41 0.00 89 1013.7
20260507004806 12 112 1.6 4.8 0.00 0.43 0.00 88 1014.1
20260507003803 12 150 1.6 4.8 0.00 0.43 0.00 88 1014.2
20260507002306 12 143 3.2 8.0 0.00 0.43 0.00 87 1014.3
20260506235306 12 148 1.6 4.8 0.00 0.43 0.00 86 1014.5
20260506234806 12 148 3.2 8.0 0.00 0.43 0.00 86 1014.5
20260506233804 13 123 3.2 8.0 0.00 0.46 0.00 86 1014.5
20260506233306 13 123 0.0 3.2 0.00 0.46 0.00 86 1014.5
20260506231806 13 123 3.2 4.8 0.00 0.46 0.00 85 1014.5
20260506231303 13 123 3.2 8.0 0.00 0.46 0.00 85 1014.5
20260506225305 13 85 1.6 4.8 0.00 0.46 0.00 84 1014.5
20260506224806 13 85 1.6 3.2 0.00 0.46 0.00 84 1014.6
20260506224304 13 85 1.6 4.8 0.00 0.46 0.00 84 1014.6
20260506223804 13 85 1.6 4.8 0.00 0.46 0.00 84 1014.5
20260506223306 13 85 0.0 1.6 0.00 0.46 0.00 84 1014.6
20260506222803 13 85 3.2 4.8 0.00 0.46 0.00 84 1014.5
20260506222305 13 80 3.2 4.8 0.00 0.46 0.00 84 1014.6
20260506221806 13 73 1.6 4.8 0.00 0.46 0.00 84 1014.6
20260506215306 14 92 1.6 4.8 0.00 0.51 0.48 85 1014.8
20260506214806 14 92 3.2 4.8 0.00 0.51 0.48 85 1014.8
20260506214304 14 92 0.0 3.2 0.00 0.51 0.48 85 1014.8
20260506212804 14 92 0.0 0.0 0.00 0.51 0.48 85 1014.9
20260506211806 14 92 0.0 3.2 0.00 0.51 0.48 84 1014.9
20260506210803 14 92 0.0 3.2 0.00 0.51 0.48 84 1014.9
20260506205803 14 92 3.2 4.8 0.00 0.51 0.48 84 1014.9
20260506205306 14 92 3.2 4.8 0.00 0.51 0.48 84 1015.0
20260506204303 15 92 3.2 4.8 0.00 0.53 0.48 83 1015.0
20260506203803 15 92 3.2 4.8 0.00 0.53 0.48 83 1014.9
20260506203306 15 92 3.2 4.8 0.00 0.53 0.48 83 1014.9
20260506202803 15 92 0.0 3.2 0.00 0.53 0.48 82 1014.8
20260506200804 15 92 0.0 3.2 0.00 0.53 0.48 80 1014.5
20260506194304 15 92 0.0 0.0 0.00 0.53 0.48 80 1014.3
20260506193306 15 92 0.0 0.0 0.00 0.53 0.48 80 1014.3
20260506192803 15 92 0.0 3.2 0.00 0.53 0.48 80 1014.3
20260506191303 15 92 0.0 3.2 0.00 0.53 0.48 80 1014.3
20260506190306 15 92 1.6 4.8 0.00 0.53 0.48 81 1014.3
20260506185803 15 92 1.6 4.8 0.00 0.53 0.48 81 1014.3
20260506185306 15 58 0.0 0.0 0.00 0.53 0.48 81 1014.3
20260506184806 15 58 0.0 0.0 0.00 0.53 0.48 81 1014.3
20260506183803 15 58 0.0 0.0 0.00 0.53 0.48 81 1014.3
20260506183306 15 58 0.0 0.0 0.00 0.53 0.48 81 1014.3
20260506182803 15 58 0.0 3.2 0.00 0.53 0.48 81 1014.2
20260506181806 15 58 4.8 4.8 0.00 0.53 0.48 81 1014.2
20260506180804 15 56 3.2 4.8 0.00 0.53 0.48 81 1014.2
20260506174806 15 58 3.2 4.8 0.00 0.53 0.48 81 1014.3
20260506173804 15 62 3.2 8.0 0.00 0.53 0.48 82 1014.3
20260506172306 15 58 6.4 9.7 0.00 0.53 0.48 81 1014.3
20260506171805 15 25 4.8 8.0 0.00 0.53 0.48 81 1014.3
20260506164805 15 25 6.4 9.7 0.00 0.53 0.48 83 1014.4
20260506164304 15 21 9.7 11.3 0.00 0.53 0.48 82 1014.4
20260506162804 15 4 8.0 12.9 0.00 0.53 0.48 83 1014.4
20260506160803 15 356 9.7 16.1 0.00 0.53 0.48 83 1014.7
20260506160305 15 354 11.3 14.5 0.00 0.53 0.48 83 1014.6
20260506153803 15 349 9.7 12.9 0.00 0.53 0.48 82 1014.8
20260506153306 15 6 9.7 12.9 0.00 0.53 0.48 82 1014.8
20260506152305 15 352 14.5 19.3 0.00 0.53 0.48 81 1014.9
20260506151806 15 347 11.3 16.1 0.00 0.53 0.48 81 1014.9
20260506151303 15 2 11.3 16.1 0.00 0.53 0.48 82 1014.9
20260506150805 15 1 11.3 14.5 0.00 0.53 0.48 81 1014.8
20260506145803 15 4 11.3 14.5 0.00 0.53 0.48 82 1014.9
20260506144806 15 358 11.3 14.5 0.00 0.53 0.48 82 1015.0
20260506143306 15 0 14.5 19.3 0.00 0.53 0.48 81 1015.0
20260506142803 15 342 14.5 22.5 0.00 0.53 0.48 80 1015.0
20260506134807 15 314 11.3 19.3 0.00 0.94 0.48 81 1015.3
20260506134303 15 317 14.5 19.3 0.00 1.35 0.48 80 1015.3
20260506133307 15 6 9.7 19.3 0.00 1.35 0.48 81 1015.4
20260506132306 15 322 9.7 16.1 0.00 1.35 0.48 82 1015.4
20260506131304 15 341 14.5 20.9 0.00 1.35 0.48 82 1015.3
20260506130306 14 318 16.1 22.5 0.00 1.35 0.48 82 1015.4
20260506124303 15 345 12.9 20.9 0.00 1.35 0.48 81 1015.5
20260506123306 15 335 11.3 19.3 0.00 1.35 0.48 79 1015.5
20260506122804 15 320 11.3 22.5 0.00 1.35 0.48 79 1015.5
20260506122306 15 300 12.9 19.3 0.00 1.35 0.48 79 1015.5
20260506120803 15 314 12.9 22.5 0.00 1.35 0.48 78 1015.3
20260506114806 15 275 11.3 19.3 0.00 1.35 0.48 80 1015.3
20260506112803 15 313 14.5 24.1 0.00 1.35 0.48 82 1015.4
20260506111806 15 304 12.9 24.1 0.00 1.35 0.48 82 1015.5
20260506110306 15 314 12.9 24.1 0.00 1.35 0.48 81 1015.3
20260506105305 15 284 16.1 24.1 0.00 1.35 0.48 81 1015.4
20260506103803 14 264 11.3 22.5 0.00 1.35 0.48 84 1015.2
20260506103306 14 294 8.0 20.9 0.00 1.35 0.48 84 1015.2
20260506100306 13 248 4.8 12.9 0.03 1.35 0.48 87 1015.2
20260506095803 13 269 12.9 20.9 0.03 1.35 0.48 87 1015.2
20260506092804 13 252 12.9 24.1 0.05 1.35 0.48 87 1015.1
20260506090804 13 258 14.5 22.5 0.10 1.32 0.46 87 1015.1
20260506084807 13 279 12.9 20.9 0.15 1.32 0.46 86 1014.9
20260506083804 13 272 8.0 12.9 0.13 1.30 0.43 86 1014.9
20260506083306 13 259 4.8 9.7 0.13 1.30 0.43 85 1015.0
20260506071806 13 259 14.5 25.7 0.00 1.17 0.33 82 1014.6
20260506071303 13 251 9.7 20.9 0.00 1.17 0.33 82 1014.5
20260506062305 12 228 11.3 19.3 0.00 1.17 0.33 84 1014.2
20260506061806 12 235 11.3 19.3 0.00 1.17 0.33 84 1014.1
20260506061304 12 230 11.3 19.3 0.00 1.17 0.33 84 1014.1
20260506050306 12 212 14.5 22.5 0.03 1.17 0.33 86 1013.9
20260506043803 12 231 11.3 24.1 0.03 1.17 0.33 86 1014.0
20260506042305 12 219 11.3 19.3 0.00 1.17 0.30 86 1013.9
20260506035804 12 230 14.5 20.9 0.15 1.17 0.30 88 1014.0